Location: Pinawa
(50.1500°N, 95.8830°W)
Time: 20:29:08
(UTC-05:00)

Amateur Radio Satellites - All Passes

Search period start: 23 April 2017 19:59
Search period end: 24 April 2017 19:59
Location: Pinawa, 50.1500°N, 95.8830°W

Satellite Date Start Highest point End Downlink Frequencies (MHz)
Time Altitude Azimuth
CUBESAT XI-V 23 Apr 19:59:39 20:02:27 16° 304° (WNW) 20:05:16 437.345
CUTE 1.7 + AOD 2 23 Apr 20:03:50 20:08:02 78° 256° (WSW) 20:12:18 437.475
CUTE-I 23 Apr 20:03:51 20:07:57 22° 269° (W) 20:12:05 437.470
AO-73 23 Apr 20:04:59 20:08:06 21° 62° (ENE) 20:11:13 145.935
AAUSAT CUBESAT 2 23 Apr 20:13:37 20:17:36 47° 70° (ENE) 20:21:37 437.432
O/OREOS (USA 219) 23 Apr 20:18:55 20:23:07 33° 52° (NE) 20:27:16 437.305
Oscar 11 23 Apr 20:24:13 20:27:51 27° 65° (ENE) 20:31:31 .
UWE-3 23 Apr 20:27:35 20:31:48 58° 72° (ENE) 20:35:56 435.000/436.395/437.385
SEEDS 23 Apr 20:30:36 20:34:44 61° 258° (WSW) 20:38:57 437.485
BEESAT 2 23 Apr 20:31:16 20:31:50 10° 358° (N) 20:32:24 435.950
CUBEBUG 2 23 Apr 20:33:18 20:37:42 80° 257° (WSW) 20:42:00 437.445
STARS 23 Apr 20:37:54 20:39:49 13° 306° (NW) 20:41:45 437.465
BEESAT 3 23 Apr 20:40:35 20:41:48 11° 10° (N) 20:43:01 437.485
STRAND 1 23 Apr 20:46:50 20:51:54 58° 101° (ESE) 20:56:55 437.568
HO-68 23 Apr 20:52:21 20:58:59 40° 263° (W) 21:05:40 435.675
XW-2A 23 Apr 21:00:39 21:02:35 15° 269° (W) 21:04:32 145.665 - 145.685
M-CUBED/EXP-1 PRIME 23 Apr 21:13:24 21:17:50 80° 108° (ESE) 21:21:55 437.505
AO-85 23 Apr 21:21:00 21:24:32 30° 37° (NE) 21:28:06 145.980
OBJECT BX 23 Apr 21:26:45 21:29:46 25° 66° (ENE) 21:32:48 145.990 - 145.960
DELFI C3 23 Apr 21:28:48 21:32:28 36° 68° (ENE) 21:36:09 145.870
ZACube-1 23 Apr 21:31:00 21:35:08 54° 260° (W) 21:39:14 437.345
AO-73 23 Apr 21:40:01 21:44:05 48° 261° (W) 21:48:07 145.935
AAUSAT CUBESAT 2 23 Apr 21:50:13 21:53:19 20° 269° (W) 21:56:26 437.432
O/OREOS (USA 219) 23 Apr 21:58:21 22:02:35 37° 252° (WSW) 22:06:47 437.305
Oscar 11 23 Apr 21:59:53 22:03:52 37° 263° (W) 22:07:55 .
UWE-3 23 Apr 22:05:50 22:08:38 17° 270° (W) 22:11:24 435.000/436.395/437.385
PRISM 23 Apr 22:05:59 22:08:21 15° 89° (E) 22:10:41 437.425
BEESAT 2 23 Apr 22:08:46 22:11:15 15° 22° (NNE) 22:13:44 435.950
FO-29 23 Apr 22:15:58 22:17:17 11° 84° (E) 22:18:36 435.910
NO-84 23 Apr 22:17:14 22:20:37 54° 146° (SSE) 22:23:44 435.350 FM
BEESAT 3 23 Apr 22:17:22 22:20:45 25° 34° (NNE) 22:24:07 437.485
STRAND 1 23 Apr 22:26:39 22:30:44 25° 301° (WNW) 22:34:48 437.568
LO-87 23 Apr 22:41:39 22:44:44 27° 67° (ENE) 22:47:51 145.935 - 145.965
M-CUBED/EXP-1 PRIME 23 Apr 22:48:50 22:51:39 17° 310° (NW) 22:54:22 437.505
TIGRISAT 23 Apr 22:51:51 22:55:24 25° 94° (E) 22:58:57 435.000
ESTCUBE 1 23 Apr 22:52:33 22:56:16 26° 63° (ENE) 23:00:02 437.505/2401.250
OBJECT BX 23 Apr 23:00:10 23:03:23 29° 264° (W) 23:06:38 145.990 - 145.960
AO-85 23 Apr 23:01:16 23:05:02 43° 237° (WSW) 23:08:54 145.980
DELFI C3 23 Apr 23:04:04 23:07:21 24° 267° (W) 23:10:39 145.870
UNISAT 6 23 Apr 23:11:44 23:15:48 41° 98° (E) 23:19:53 437.425
SPROUT 23 Apr 23:13:56 23:15:55 13° 56° (NE) 23:17:54 437.525
VELOX 1 23 Apr 23:21:12 23:24:08 17° 58° (ENE) 23:27:05 145.980
50 SAT 23 Apr 23:39:33 23:40:36 11° 58° (ENE) 23:41:38 437.505
PRISM 23 Apr 23:39:56 23:44:05 67° 289° (WNW) 23:48:12 437.425
BEESAT 2 23 Apr 23:45:54 23:49:54 52° 44° (NE) 23:53:52 435.950
BEESAT 3 23 Apr 23:54:41 23:58:41 63° 235° (SW) 00:02:38 437.485
NO-84 23 Apr 23:55:06 23:58:13 41° 345° (NNW) 00:01:08 435.350 FM
FO-29 23 Apr 23:58:10 00:03:23 76° 104° (ESE) 00:08:43 435.910
UKube-1 23 Apr 23:58:49 00:00:44 13° 55° (NE) 00:02:38 .
POLYITAN 1 24 Apr 00:04:59 00:07:07 14° 88° (E) 00:09:15 437.675
QB50P2 24 Apr 00:10:54 00:13:40 17° 90° (E) 00:16:24 145.880/145.840
LO-87 24 Apr 00:14:59 00:18:09 27° 265° (W) 00:21:19 145.935 - 145.965
DX 1 24 Apr 00:22:53 00:26:33 27° 63° (ENE) 00:30:14 434.975-435.025
TIGRISAT 24 Apr 00:28:16 00:32:14 38° 292° (WNW) 00:36:12 435.000
ESTCUBE 1 24 Apr 00:28:35 00:32:53 44° 262° (W) 00:37:14 437.505/2401.250
AIST 2D 24 Apr 00:33:50 00:37:14 44° 99° (E) 00:40:37 435.315
NANOSAT C BR1 24 Apr 00:35:41 00:39:08 24° 94° (E) 00:42:35 145.865
SPROUT 24 Apr 00:46:53 00:51:11 88° 75° (ENE) 00:55:29 437.525
UNISAT 6 24 Apr 00:48:53 00:52:21 24° 297° (WNW) 00:55:49 437.425
BUGSAT 1 24 Apr 00:49:29 00:49:50 10° 86° (E) 00:50:10 437.445
VELOX 1 24 Apr 00:55:38 01:00:06 72° 258° (WSW) 01:04:35 145.980
EO-79 24 Apr 01:00:58 01:05:03 47° 99° (E) 01:09:06 145.935-145.965
DUCHIFAT 1 24 Apr 01:06:55 01:10:57 45° 99° (E) 01:14:56 145.980
50 SAT 24 Apr 01:09:31 01:13:00 77° 255° (WSW) 01:16:31 437.505
BEESAT 2 24 Apr 01:24:10 01:27:25 23° 244° (WSW) 01:30:39 435.950
UKube-1 24 Apr 01:31:43 01:36:04 82° 73° (ENE) 01:40:26 .
NO-84 24 Apr 01:33:22 01:36:12 32° 6° (N) 01:38:53 435.350 FM
POLYITAN 1 24 Apr 01:39:13 01:43:25 72° 286° (WNW) 01:47:35 437.675
FO-29 24 Apr 01:44:24 01:47:59 19° 304° (NW) 01:51:36 435.910
QB50P2 24 Apr 01:45:41 01:49:50 58° 289° (WNW) 01:53:58 145.880/145.840
ITUPSAT 1 24 Apr 01:50:29 01:53:30 17° 56° (NE) 01:56:30 437.325
DX 1 24 Apr 01:58:26 02:02:35 41° 262° (W) 02:06:46 434.975-435.025
AIST 2D 24 Apr 02:07:52 02:10:09 17° 297° (WNW) 02:12:26 435.315
NANOSAT C BR1 24 Apr 02:11:05 02:14:58 38° 292° (WNW) 02:18:52 145.865
BUGSAT 1 24 Apr 02:21:47 02:25:51 89° 271° (W) 02:29:51 437.445
SPROUT 24 Apr 02:26:16 02:27:43 11° 274° (W) 02:29:11 437.525
Gurwin Techsat 1B 24 Apr 02:26:44 02:31:00 24° 92° (E) 02:35:15 435.225
EO-79 24 Apr 02:37:19 02:40:33 22° 298° (WNW) 02:43:46 145.935-145.965
DUCHIFAT 1 24 Apr 02:43:07 02:46:23 22° 298° (WNW) 02:49:37 145.980
BEESAT 24 Apr 02:47:43 02:52:16 48° 68° (ENE) 02:56:50 436.000
Oscar 19 24 Apr 02:50:02 02:55:11 58° 101° (ESE) 03:00:18 437.125/150
MOZHAYETS 4 24 Apr 03:09:18 03:13:27 36° 66° (ENE) 03:17:38
UKube-1 24 Apr 03:10:45 03:12:41 13° 272° (W) 03:14:37 .
NO-84 24 Apr 03:11:00 03:13:58 88° 40° (NE) 03:16:49 435.350 FM
POLYITAN 1 24 Apr 03:17:29 03:18:26 11° 306° (NW) 03:19:24 437.675
PCSat 24 Apr 03:19:49 03:24:28 30° 112° (ESE) 03:29:09 145.827
ITUPSAT 1 24 Apr 03:25:57 03:30:43 83° 254° (WSW) 03:35:32 437.325
KKS-1 24 Apr 03:45:15 03:48:29 20° 59° (ENE) 03:51:44 437.445
YUBILEINY 24 Apr 03:47:16 03:52:56 20° 74° (ENE) 03:58:37 435.215
CUBESAT XI-V 24 Apr 03:52:41 03:56:11 22° 60° (ENE) 03:59:44 437.345
BUGSAT 1 24 Apr 03:59:00 04:00:34 12° 304° (NW) 04:02:07 437.445
Gurwin Techsat 1B 24 Apr 04:06:06 04:11:20 59° 291° (WNW) 04:16:32 435.225
AO-7 24 Apr 04:08:10 04:15:25 32° 94° (E) 04:22:38 .
ITAMSAT 1 24 Apr 04:09:17 04:13:51 31° 95° (E) 04:18:24 435.822/435.867
STARS 24 Apr 04:25:30 04:28:53 22° 61° (ENE) 04:32:17 437.465
BEESAT 24 Apr 04:26:22 04:30:16 25° 267° (W) 04:34:12 436.000
Oscar 19 24 Apr 04:29:56 04:34:10 26° 300° (WNW) 04:38:24 437.125/150
MOZHAYETS 4 24 Apr 04:46:39 04:50:40 30° 265° (W) 04:54:43
NO-84 24 Apr 04:49:27 04:51:02 14° 227° (SW) 04:52:36 435.350 FM
PCSat 24 Apr 05:02:15 05:07:36 57° 312° (NW) 05:12:59 145.827
ITUPSAT 1 24 Apr 05:07:35 05:09:20 12° 274° (W) 05:11:04 437.325
KKS-1 24 Apr 05:20:13 05:24:39 61° 258° (WSW) 05:29:07 437.445
CUBESAT XI-V 24 Apr 05:28:36 05:33:11 59° 259° (W) 05:37:50 437.345
YUBILEINY 24 Apr 05:39:38 05:48:18 79° 97° (E) 05:57:02 435.215
Gurwin Techsat 1B 24 Apr 05:48:11 05:50:14 12° 311° (NW) 05:52:18 435.225
ITAMSAT 1 24 Apr 05:48:34 05:53:28 44° 294° (WNW) 05:58:22 435.822/435.867
AO-7 24 Apr 06:00:36 06:08:52 72° 295° (WNW) 06:17:08 .
STARS 24 Apr 06:00:37 06:04:56 52° 259° (W) 06:09:16 437.465
XW-2B 24 Apr 06:22:46 06:23:29 10° 87° (E) 06:24:12 145.730 - 145.750
M-CUBED/EXP-1 PRIME 24 Apr 06:28:57 06:33:01 31° 58° (ENE) 06:37:07 437.505
LilacSat-2 24 Apr 06:29:10 06:31:05 13° 89° (E) 06:33:01 437.200
STRAND 1 24 Apr 06:29:46 06:33:42 23° 59° (ENE) 06:37:39 437.568
XW-2C 24 Apr 06:33:20 06:35:25 14° 89° (E) 06:37:28 145.795 - 145.815
CUTE-I 24 Apr 06:35:27 06:38:57 18° 88° (E) 06:42:26 437.470
KAITUO 1B 24 Apr 06:38:37 06:40:23 13° 89° (E) 06:42:07 145.475/437.950
DOVE 4 24 Apr 06:45:01 06:49:18 32° 94° (E) 06:53:21 437.250
PCSat 24 Apr 06:48:18 06:52:10 19° 335° (NNW) 06:56:03 145.827
XW-2F 24 Apr 07:00:15 07:03:27 25° 95° (E) 07:06:39 145.980 - 146.000
NUDT-PHONESAT 24 Apr 07:20:38 07:24:03 34° 97° (E) 07:27:28 437.300
RS-15 24 Apr 07:30:19 07:40:21 32° 104° (ESE) 07:50:32 29.354- 29.394
YUBILEINY 24 Apr 07:38:47 07:46:08 30° 300° (WNW) 07:53:33 435.215
SO-50 24 Apr 07:39:42 07:43:39 29° 118° (ESE) 07:47:35 436.795
CUTE 1.7 + AOD 2 24 Apr 07:45:17 07:47:35 14° 88° (E) 07:49:52 437.475
XW-2D 24 Apr 07:47:32 07:51:21 89° 102° (ESE) 07:55:11 145.860 - 145.880
AO-7 24 Apr 07:54:16 08:00:23 24° 318° (NW) 08:06:30 .
XW-2B 24 Apr 07:54:24 07:58:13 80° 285° (WNW) 08:02:01 145.730 - 145.750
LilacSat-2 24 Apr 08:01:59 08:05:47 63° 287° (WNW) 08:09:34 437.200
M-CUBED/EXP-1 PRIME 24 Apr 08:02:54 08:07:17 43° 256° (WSW) 08:11:46 437.505
XW-2C 24 Apr 08:06:14 08:09:59 58° 287° (WNW) 08:13:43 145.795 - 145.815
STRAND 1 24 Apr 08:07:24 08:12:29 64° 258° (WSW) 08:17:35 437.568
SEEDS 24 Apr 08:10:32 08:13:19 17° 89° (E) 08:16:05 437.485
KAITUO 1B 24 Apr 08:11:04 08:14:48 63° 287° (WNW) 08:18:32 145.475/437.950
HO-68 24 Apr 08:14:12 08:20:40 34° 95° (E) 08:27:06 435.675
CUTE-I 24 Apr 08:14:18 08:19:39 79° 288° (WNW) 08:24:57 437.470
XW-2A 24 Apr 08:16:33 08:19:20 24° 95° (E) 08:22:05 145.665 - 145.685
CUBEBUG 2 24 Apr 08:20:28 08:22:49 15° 89° (E) 08:25:10 437.445
DOVE 4 24 Apr 08:22:39 08:27:03 36° 294° (WNW) 08:31:11 437.250
XW-2F 24 Apr 08:34:15 08:37:37 31° 292° (WNW) 08:40:59 145.980 - 146.000
FO-29 24 Apr 08:34:19 08:36:34 12° 50° (NE) 08:38:45 435.910
PCSat 24 Apr 08:35:13 08:37:47 13° 2° (N) 08:40:21 145.827
UNISAT 6 24 Apr 08:42:47 08:43:07 10° 54° (NE) 08:43:27 437.425
NUDT-PHONESAT 24 Apr 08:54:52 08:57:49 23° 295° (WNW) 09:00:46 437.300
PRISM 24 Apr 08:59:15 09:02:22 21° 61° (ENE) 09:05:30 437.425
ZACube-1 24 Apr 09:14:52 09:17:58 20° 92° (E) 09:21:05 437.345
SO-50 24 Apr 09:19:26 09:23:56 51° 317° (NW) 09:28:23 436.795
CUTE 1.7 + AOD 2 24 Apr 09:19:38 09:23:55 73° 286° (WNW) 09:28:12 437.475
AO-73 24 Apr 09:23:20 09:26:36 22° 92° (E) 09:29:54 145.935
XW-2D 24 Apr 09:23:47 09:24:57 11° 302° (WNW) 09:26:06 145.860 - 145.880
AAUSAT CUBESAT 2 24 Apr 09:26:12 09:30:16 46° 99° (E) 09:34:19 437.432
RS-15 24 Apr 09:39:12 09:51:25 90° 132° (SE) 10:03:54 29.354- 29.394
Oscar 11 24 Apr 09:42:09 09:45:57 29° 94° (E) 09:49:43 .
SEEDS 24 Apr 09:45:10 09:49:23 60° 288° (WNW) 09:53:35 437.485
UWE-3 24 Apr 09:48:29 09:52:39 68° 102° (ESE) 09:56:50 435.000/436.395/437.385
XW-2A 24 Apr 09:49:14 09:52:04 26° 293° (WNW) 09:54:53 145.665 - 145.685
TIGRISAT 24 Apr 09:54:38 09:58:42 39° 68° (ENE) 10:02:44 435.000
CUTE-I 24 Apr 09:55:45 09:58:54 16° 308° (NW) 10:02:01 437.470
CUBEBUG 2 24 Apr 09:55:47 09:59:54 65° 287° (WNW) 10:04:02 437.445
HO-68 24 Apr 10:01:44 10:08:47 60° 295° (WNW) 10:15:49 435.675
FO-29 24 Apr 10:14:35 10:20:43 57° 69° (ENE) 10:26:12 435.910
UNISAT 6 24 Apr 10:14:41 10:19:01 65° 73° (ENE) 10:23:19 437.425
PCSat 24 Apr 10:19:10 10:23:19 22° 28° (NNE) 10:27:27 145.827
OBJECT BX 24 Apr 10:24:37 10:27:07 17° 91° (E) 10:29:36 145.990 - 145.960
PRISM 24 Apr 10:33:18 10:37:21 50° 260° (W) 10:41:26 437.425
DELFI C3 24 Apr 10:35:44 10:39:20 31° 95° (E) 10:42:54 145.870
O/OREOS (USA 219) 24 Apr 10:37:53 10:40:21 14° 98° (E) 10:42:49 437.305
ZACube-1 24 Apr 10:50:28 10:54:31 48° 290° (WNW) 10:58:35 437.345
CUTE 1.7 + AOD 2 24 Apr 10:57:47 10:59:00 11° 305° (NW) 11:00:11 437.475
AO-73 24 Apr 10:59:05 11:03:02 43° 291° (WNW) 11:07:04 145.935
POLYITAN 1 24 Apr 11:01:33 11:04:36 20° 61° (ENE) 11:07:41 437.675
AAUSAT CUBESAT 2 24 Apr 11:02:13 11:05:28 22° 297° (WNW) 11:08:42 437.432
SO-50 24 Apr 11:02:16 11:05:23 18° 340° (NNW) 11:08:29 436.795
Tancredo 1 24 Apr 11:03:49 11:06:49 45° 153° (SSE) 11:09:49 437.200
ISS 24 Apr 11:04:45 11:07:51 40° 151° (SSE) 11:10:56 437.550
QB50P2 24 Apr 11:07:36 11:10:59 24° 63° (ENE) 11:14:23 145.880/145.840
AIST 2D 24 Apr 11:12:35 11:15:44 33° 69° (ENE) 11:18:53 435.315
Oscar 11 24 Apr 11:18:10 11:22:08 35° 293° (WNW) 11:26:05 .
UWE-3 24 Apr 11:26:07 11:28:39 16° 301° (WNW) 11:31:11 435.000/436.395/437.385
NANOSAT C BR1 24 Apr 11:31:49 11:35:37 33° 66° (ENE) 11:39:24 145.865
TIGRISAT 24 Apr 11:31:50 11:35:31 26° 266° (W) 11:39:09 435.000
LO-87 24 Apr 11:37:39 11:40:05 17° 91° (E) 11:42:30 145.935 - 145.965
BUGSAT 1 24 Apr 11:42:12 11:44:40 16° 59° (ENE) 11:47:08 437.445
HO-68 24 Apr 11:50:50 11:55:09 17° 317° (NW) 11:59:29 435.675
UNISAT 6 24 Apr 11:53:28 11:56:10 16° 270° (W) 11:58:52 437.425
RS-15 24 Apr 11:53:46 12:05:33 48° 338° (NNW) 12:17:23 29.354- 29.394
EO-79 24 Apr 11:57:23 12:01:34 64° 72° (ENE) 12:05:45 145.935-145.965
OBJECT BX 24 Apr 11:57:32 12:01:01 43° 289° (WNW) 12:04:30 145.990 - 145.960
FO-29 24 Apr 12:00:50 12:06:06 28° 266° (W) 12:10:57 435.910
PCSat 24 Apr 12:02:14 12:07:42 69° 51° (NE) 12:13:07 145.827
DUCHIFAT 1 24 Apr 12:02:42 12:06:51 60° 72° (ENE) 12:10:59 145.980
DELFI C3 24 Apr 12:10:35 12:14:04 29° 294° (WNW) 12:17:33 145.870
O/OREOS (USA 219) 24 Apr 12:14:30 12:19:06 81° 296° (WNW) 12:23:45 437.305
ESTCUBE 1 24 Apr 12:16:17 12:20:13 28° 94° (E) 12:24:09 437.505/2401.250
Gurwin Techsat 1B 24 Apr 12:16:23 12:18:24 12° 49° (NE) 12:20:24 435.225
SPROUT 24 Apr 12:30:15 12:31:23 11° 86° (E) 12:32:30 437.525
Oscar 19 24 Apr 12:33:46 12:37:47 23° 58° (ENE) 12:41:49 437.125/150
POLYITAN 1 24 Apr 12:35:56 12:40:04 53° 259° (W) 12:44:12 437.675
Tancredo 1 24 Apr 12:39:36 12:42:42 68° 352° (N) 12:45:48 437.200
ISS 24 Apr 12:40:59 12:44:14 73° 350° (N) 12:47:30 437.550
VELOX 1 24 Apr 12:42:03 12:44:48 16° 89° (E) 12:47:32 145.980
QB50P2 24 Apr 12:42:32 12:46:34 43° 261° (W) 12:50:37 145.880/145.840
SO-50 24 Apr 12:45:21 12:47:36 13° 5° (N) 12:49:51 436.795
AIST 2D 24 Apr 12:46:26 12:49:03 20° 267° (W) 12:51:41 435.315
NANOSAT C BR1 24 Apr 13:07:41 13:11:21 29° 265° (W) 13:15:03 145.865
LO-87 24 Apr 13:10:20 13:13:44 41° 290° (WNW) 13:17:06 145.935 - 145.965
BUGSAT 1 24 Apr 13:15:25 13:19:34 70° 257° (WSW) 13:23:42 437.445
AO-85 24 Apr 13:21:03 13:23:44 17° 114° (ESE) 13:26:20 145.980
AO-7 24 Apr 13:22:58 13:28:44 21° 39° (NE) 13:34:29 .
EO-79 24 Apr 13:35:11 13:37:45 16° 271° (W) 13:40:19 145.935-145.965
DUCHIFAT 1 24 Apr 13:40:15 13:42:54 16° 270° (W) 13:45:34 145.980
DX 1 24 Apr 13:42:00 13:45:35 24° 94° (E) 13:49:09 434.975-435.025
PCSat 24 Apr 13:46:22 13:50:38 24° 251° (WSW) 13:54:53 145.827
YUBILEINY 24 Apr 13:48:35 13:53:02 14° 44° (NE) 13:57:29 435.215
Gurwin Techsat 1B 24 Apr 13:52:05 13:57:17 58° 69° (ENE) 14:02:32 435.225
ESTCUBE 1 24 Apr 13:52:53 13:57:08 39° 293° (WNW) 14:01:21 437.505/2401.250
ITAMSAT 1 24 Apr 13:55:22 13:58:09 15° 52° (NE) 14:00:57 435.822/435.867
O/OREOS (USA 219) 24 Apr 13:56:22 13:59:17 16° 319° (NW) 14:02:14 437.305
50 SAT 24 Apr 14:01:23 14:04:51 56° 101° (E) 14:08:16 437.505
SPROUT 24 Apr 14:03:40 14:07:57 89° 79° (E) 14:12:12 437.525
RS-15 24 Apr 14:09:56 14:21:34 43° 12° (NNE) 14:32:57 29.354- 29.394
Oscar 19 24 Apr 14:11:34 14:16:41 64° 258° (WSW) 14:21:52 437.125/150
Tancredo 1 24 Apr 14:15:39 14:18:46 79° 12° (NNE) 14:21:53 437.200
VELOX 1 24 Apr 14:17:17 14:21:44 68° 287° (WNW) 14:26:07 145.980
ISS 24 Apr 14:17:36 14:20:52 75° 10° (N) 14:24:07 437.550
SO-50 24 Apr 14:25:53 14:29:37 24° 29° (NNE) 14:33:18 436.795
UKube-1 24 Apr 14:49:56 14:54:17 78° 104° (ESE) 14:58:36 .
AO-85 24 Apr 14:59:31 15:03:42 72° 312° (NW) 15:07:42 145.980
AO-7 24 Apr 15:11:55 15:20:03 65° 63° (ENE) 15:28:15 .
DX 1 24 Apr 15:17:48 15:21:57 42° 292° (WNW) 15:26:04 434.975-435.025
BEESAT 2 24 Apr 15:19:46 15:22:34 19° 114° (ESE) 15:25:24 435.950
ITUPSAT 1 24 Apr 15:22:33 15:25:51 18° 90° (E) 15:29:07 437.325
BEESAT 3 24 Apr 15:25:28 15:29:16 47° 123° (ESE) 15:33:08 437.485
ITAMSAT 1 24 Apr 15:31:37 15:36:48 74° 71° (ENE) 15:41:59 435.822/435.867
Gurwin Techsat 1B 24 Apr 15:33:21 15:37:37 24° 268° (W) 15:41:55 435.225
50 SAT 24 Apr 15:35:30 15:37:23 14° 299° (WNW) 15:39:17 437.505
SPROUT 24 Apr 15:41:12 15:43:14 13° 304° (WNW) 15:45:15 437.525
YUBILEINY 24 Apr 15:43:58 15:52:28 51° 71° (ENE) 16:00:58 435.215
Tancredo 1 24 Apr 15:51:43 15:54:31 31° 212° (SSW) 15:57:19 437.200
ISS 24 Apr 15:54:11 15:57:14 37° 210° (SSW) 16:00:16 437.550
VELOX 1 24 Apr 15:56:07 15:57:21 11° 307° (NW) 15:58:34 145.980
SO-50 24 Apr 16:06:05 16:10:37 85° 231° (SW) 16:15:08 436.795
BEESAT 24 Apr 16:20:26 16:25:09 58° 101° (ESE) 16:29:51 436.000
DOVE 4 24 Apr 16:20:31 16:22:10 11° 51° (NE) 16:23:50 437.250
RS-15 24 Apr 16:24:03 16:36:29 73° 43° (NE) 16:48:22 29.354- 29.394
UKube-1 24 Apr 16:27:13 16:29:46 16° 303° (WNW) 16:32:19 .
MOZHAYETS 4 24 Apr 16:36:04 16:40:30 44° 98° (E) 16:44:54
AO-85 24 Apr 16:41:58 16:44:45 17° 333° (NNW) 16:47:28 145.980
BEESAT 2 24 Apr 16:55:58 16:59:55 63° 313° (NW) 17:03:57 435.950
ITUPSAT 1 24 Apr 16:59:23 17:04:08 67° 289° (WNW) 17:08:53 437.325
BEESAT 3 24 Apr 17:03:29 17:07:02 29° 324° (NW) 17:10:36 437.485
HO-68 24 Apr 17:05:34 17:08:20 13° 36° (NE) 17:11:06 435.675
AO-7 24 Apr 17:05:52 17:13:20 36° 264° (W) 17:20:51 .
KKS-1 24 Apr 17:07:11 17:10:19 18° 91° (E) 17:13:25 437.445
XW-2B 24 Apr 17:08:42 17:09:52 11° 58° (ENE) 17:11:03 145.730 - 145.750
ITAMSAT 1 24 Apr 17:13:18 17:16:50 18° 271° (W) 17:20:23 435.822/435.867
LilacSat-2 24 Apr 17:15:51 17:17:52 14° 60° (ENE) 17:19:51 437.200
XW-2C 24 Apr 17:19:28 17:21:32 14° 60° (ENE) 17:23:38 145.795 - 145.815
CUBESAT XI-V 24 Apr 17:20:38 17:24:35 26° 93° (E) 17:28:30 437.345
KAITUO 1B 24 Apr 17:23:36 17:25:19 13° 59° (ENE) 17:27:02 145.475/437.950
YUBILEINY 24 Apr 17:41:05 17:49:13 45° 273° (W) 17:57:21 435.215
XW-2F 24 Apr 17:45:40 17:48:43 24° 65° (ENE) 17:51:46 145.980 - 146.000
STARS 24 Apr 17:45:46 17:49:01 20° 92° (E) 17:52:15 437.465
SO-50 24 Apr 17:48:09 17:50:23 14° 250° (WSW) 17:52:37 436.795
DOVE 4 24 Apr 17:53:39 17:58:50 56° 70° (ENE) 18:03:56 437.250
BEESAT 24 Apr 17:58:54 18:02:33 22° 301° (WNW) 18:06:14 436.000
CUTE-I 24 Apr 18:01:15 18:06:18 44° 66° (ENE) 18:11:22 437.470
NUDT-PHONESAT 24 Apr 18:04:20 18:07:35 31° 68° (ENE) 18:10:52 437.300
MOZHAYETS 4 24 Apr 18:13:38 18:17:28 27° 297° (WNW) 18:21:19
XW-2D 24 Apr 18:32:52 18:36:36 83° 73° (ENE) 18:40:23 145.860 - 145.880
BEESAT 2 24 Apr 18:35:47 18:38:28 17° 335° (NNW) 18:41:10 435.950
RS-15 24 Apr 18:37:10 18:48:26 46° 249° (WSW) 18:59:15 29.354- 29.394
ITUPSAT 1 24 Apr 18:39:18 18:41:06 12° 308° (NW) 18:42:54 437.325
XW-2B 24 Apr 18:39:44 18:43:28 86° 252° (WSW) 18:47:15 145.730 - 145.750
CUTE 1.7 + AOD 2 24 Apr 18:42:11 18:45:08 19° 61° (ENE) 18:48:06 437.475
KKS-1 24 Apr 18:42:52 18:47:15 58° 290° (WNW) 18:51:35 437.445
BEESAT 3 24 Apr 18:44:18 18:45:51 12° 346° (NNW) 18:47:25 437.485
HO-68 24 Apr 18:47:40 18:54:16 42° 59° (ENE) 19:00:55 435.675
LilacSat-2 24 Apr 18:47:56 18:51:40 66° 258° (WSW) 18:55:27 437.200
XW-2C 24 Apr 18:51:35 18:55:18 62° 259° (W) 18:59:03 145.795 - 145.815
XW-2A 24 Apr 18:52:39 18:55:03 18° 64° (ENE) 18:57:26 145.665 - 145.685
KAITUO 1B 24 Apr 18:55:10 18:58:50 70° 258° (WSW) 19:02:33 145.475/437.950
CUBESAT XI-V 24 Apr 18:57:38 19:02:09 46° 292° (WNW) 19:06:38 437.345
O/OREOS (USA 219) 24 Apr 19:02:41 19:04:58 13° 37° (NE) 19:07:15 437.305
SEEDS 24 Apr 19:06:29 19:09:40 21° 62° (ENE) 19:12:52 437.485
UWE-3 24 Apr 19:15:57 19:18:01 13° 58° (ENE) 19:20:05 435.000/436.395/437.385
XW-2F 24 Apr 19:19:23 19:22:45 32° 264° (W) 19:26:09 145.980 - 146.000
STARS 24 Apr 19:21:24 19:25:40 51° 291° (WNW) 19:29:54 437.465
CUBEBUG 2 24 Apr 19:22:32 19:25:57 23° 63° (ENE) 19:29:19 437.445
DOVE 4 24 Apr 19:32:26 19:36:48 25° 269° (W) 19:41:06 437.250
NUDT-PHONESAT 24 Apr 19:38:32 19:41:33 24° 266° (W) 19:44:35 437.300
CUTE-I 24 Apr 19:41:44 19:46:30 32° 265° (W) 19:51:17 437.470
